Marion, IN

9:19 AM EST on January 18, 2017 (GMT -0500)
Marion Municipal

Weather History for KMZZ - January, 2014

Change the Weather History Date:

Friday, January 24, 2014

  Actual Average (KMIE) Record (KMIE)
Temperature  
Mean Temperature 6 °F -  
Max Temperature 78 °F 35 °F 63 °F (1967)
Min Temperature -8 °F 18 °F -18 °F (1963)
Degree Days  
Heating Degree Days 60    
Moisture  
Dew Point -3 °F    
Average Humidity 69    
Maximum Humidity 87    
Minimum Humidity 58    
Precipitation  
Precipitation 0.00 in - - ()
Sea Level Pressure  
Sea Level Pressure 30.20 in    
Wind  
Wind Speed 15 mph (SW)    
Max Wind Speed 28 mph    
Max Gust Speed 39 mph    
Visibility 8 miles    
Events Snow    
Averages and records for this station are not official NWS values.
T = Trace of Precipitation, MM = Missing Value Source: NWS Daily Summary

Daily Weather History Graph

Daily Weather History Graph

Search for Another Location

Airport or City:

Trip Planner

Search our weather history database for the weather conditions in past years. The results will help you decide how hot, cold, wet, or windy it might be!

Date:

Astronomy

Jan. 24, 2014 Rise Set
Actual Time 7:58 AM EST 5:51 PM EST
Civil Twilight 7:29 AM EST 6:20 PM EST
Nautical Twilight 6:56 AM EST 6:53 PM EST
Astronomical Twilight 6:24 AM EST 7:26 PM EST
Moon 1:25 AM EST (1/24) 12:09 PM EST (1/24)
Length of Visible Light 10h 51m
Length of Day
9h 52m
Last Quarter, 45% of the Moon is Illuminated
Jan 24
Last Quarter
Jan 30
New
Feb 6
First Quarter
Feb 14
Full
Feb 22
Last Quarter

Hourly Weather History & Observations

Time (EST) Temp. Windchill Dew Point Humidity Pressure Visibility Wind Dir Wind Speed Gust Speed Precip Events Conditions
12:15 AM -2.4 °F -20.1 °F -8.7 °F 75% 30.56 in 10.0 mi West 11.5 mph - N/A   Clear
12:35 AM -3.1 °F -19.1 °F -9.4 °F 74% 30.56 in 10.0 mi West 9.2 mph - N/A   Clear
12:55 AM -4.2 °F -20.4 °F -10.3 °F 75% 30.56 in 10.0 mi West 9.2 mph - N/A   Clear
1:15 AM -4.7 °F -19.9 °F -10.7 °F 76% 30.56 in 10.0 mi West 8.1 mph - N/A   Clear
1:35 AM -5.4 °F -20.8 °F -11.6 °F 75% 30.55 in 10.0 mi West 8.1 mph - N/A   Clear
1:55 AM -5.3 °F -19.3 °F -11.4 °F 75% 30.54 in 10.0 mi WSW 6.9 mph - N/A   Clear
2:15 AM -4.7 °F -19.9 °F -11.2 °F 74% 30.55 in 10.0 mi WSW 8.1 mph - N/A   Clear
2:35 AM -4.9 °F -21.3 °F -11.4 °F 74% 30.55 in 10.0 mi WSW 9.2 mph - N/A   Clear
2:55 AM -5.1 °F -22.5 °F -11.2 °F 75% 30.55 in 10.0 mi WSW 10.4 mph - N/A   Clear
3:15 AM -5.3 °F -20.6 °F -11.2 °F 76% 30.54 in 10.0 mi WSW 8.1 mph - N/A   Clear
3:35 AM -5.6 °F -22.2 °F -11.6 °F 75% 30.54 in 10.0 mi WSW 9.2 mph - N/A   Clear
3:55 AM -6.2 °F -21.7 °F -12.5 °F 74% 30.53 in 10.0 mi WSW 8.1 mph - N/A   Clear
4:15 AM -6.5 °F -23.3 °F -12.6 °F 75% 30.53 in 10.0 mi SW 9.2 mph - N/A   Clear
4:35 AM -6.5 °F -23.3 °F -12.6 °F 75% 30.52 in 10.0 mi WSW 9.2 mph - N/A   Clear
4:55 AM -6.3 °F -24.1 °F -12.5 °F 75% 30.52 in 10.0 mi WSW 10.4 mph - N/A   Clear
5:15 AM -5.8 °F -22.4 °F -12.3 °F 74% 30.52 in 10.0 mi WSW 9.2 mph - N/A   Clear
5:35 AM -6.3 °F -21.9 °F -13.0 °F 73% 30.51 in 10.0 mi SW 8.1 mph - N/A   Clear
5:55 AM -7.8 °F -24.8 °F -14.3 °F 73% 30.49 in 10.0 mi SW 9.2 mph - N/A   Clear
6:15 AM -7.6 °F -24.6 °F -13.7 °F 75% 30.48 in 10.0 mi SW 9.2 mph - N/A   Clear
6:35 AM -7.8 °F -24.8 °F -13.9 °F 75% 30.48 in 10.0 mi SSW 9.2 mph - N/A   Clear
6:55 AM -8.1 °F -25.3 °F -14.1 °F 75% 30.47 in 10.0 mi SSW 9.2 mph - N/A   Clear
7:15 AM -7.8 °F -25.9 °F -13.5 °F 76% 30.46 in 10.0 mi SSW 10.4 mph - N/A   Clear
7:35 AM -7.1 °F -23.9 °F -13.0 °F 75% 30.46 in 10.0 mi SSW 9.2 mph - N/A   Clear
7:55 AM -6.7 °F -24.5 °F -13.0 °F 74% 30.45 in 10.0 mi SSW 10.4 mph - N/A   Clear
8:15 AM -6.7 °F -25.5 °F -12.8 °F 75% 30.43 in 10.0 mi SSW 11.5 mph - N/A   Clear
8:35 AM -6.0 °F -25.5 °F -11.9 °F 75% 30.42 in 10.0 mi SSW 12.7 mph - N/A   Clear
8:55 AM -5.1 °F -23.5 °F -11.6 °F 74% 30.41 in 10.0 mi SSW 11.5 mph - N/A   Clear
9:15 AM -4.4 °F -23.4 °F -11.0 °F 73% 30.41 in 10.0 mi SSW 12.7 mph - N/A   Clear
9:35 AM -3.3 °F -22.1 °F -9.9 °F 73% 30.39 in 10.0 mi SSW 12.7 mph - N/A   Clear
9:55 AM -2.0 °F -21.9 °F -9.2 °F 71% 30.38 in 10.0 mi SSW 15.0 mph - N/A   Clear
10:15 AM -0.8 °F -22.2 °F -8.0 °F 72% 30.37 in 10.0 mi SW 18.4 mph - N/A   Clear
10:35 AM 0.3 °F -19.6 °F -7.2 °F 70% 30.36 in 10.0 mi SSW 16.1 mph 20.7 mph N/A   Clear
10:55 AM 1.9 °F -19.2 °F -6.0 °F 69% 30.35 in 7.0 mi SW 19.6 mph 26.5 mph N/A   Clear
11:15 AM 3.4 °F -16.8 °F -5.1 °F 68% 30.34 in 5.0 mi SW 18.4 mph 27.6 mph N/A   Haze
11:35 AM 4.3 °F -18.1 °F -4.4 °F 67% 30.31 in 3.0 mi SW 24.2 mph 27.6 mph N/A   Haze
11:55 AM 5.5 °F -16.4 °F -3.5 °F 66% 30.30 in 5.0 mi SW 24.2 mph - N/A   Haze
12:15 PM 6.4 °F -14.3 °F -2.6 °F 67% 30.27 in 5.0 mi SW 21.9 mph 26.5 mph N/A   Haze
12:35 PM 7.7 °F -12.6 °F -1.8 °F 65% 30.24 in 7.0 mi SW 21.9 mph 27.6 mph N/A   Clear
12:55 PM 8.8 °F -12.4 °F -1.1 °F 64% 30.21 in 3.0 mi SW 25.3 mph 34.5 mph N/A   Haze
1:15 PM 9.3 °F -11.7 °F -0.9 °F 63% 30.18 in 4.0 mi SW 25.3 mph 33.4 mph N/A   Haze
1:35 PM 10.4 °F -8.6 °F -0.2 °F 62% 30.16 in 7.0 mi SSW 20.7 mph 25.3 mph N/A   Clear
1:55 PM 11.3 °F -7.9 °F 0.7 °F 62% 30.12 in 7.0 mi SSW 21.9 mph 28.8 mph N/A   Clear
2:15 PM 11.8 °F -8.0 °F 1.4 °F 63% 30.09 in 5.0 mi SSW 24.2 mph 31.1 mph N/A   Haze
2:35 PM 12.6 °F -7.8 °F 1.8 °F 62% 30.07 in 5.0 mi SSW 26.5 mph 29.9 mph N/A   Haze
2:55 PM 13.3 °F -5.7 °F 2.3 °F 62% 30.05 in 7.0 mi SSW 23.0 mph - N/A   Clear
3:15 PM 13.8 °F -5.3 °F 2.8 °F 62% 30.03 in 3.0 mi SSW 24.2 mph 33.4 mph N/A   Haze
3:35 PM 14.5 °F -5.4 °F 3.4 °F 61% 30.00 in 3.0 mi SSW 27.6 mph 33.4 mph N/A   Haze
3:55 PM 14.9 °F -3.9 °F 3.7 °F 61% 29.98 in 2.5 mi SSW 24.2 mph 35.7 mph N/A   Haze
4:15 PM 15.6 °F -3.6 °F 3.9 °F 60% 29.94 in 3.0 mi SSW 26.5 mph 35.7 mph N/A   Haze
4:35 PM 15.4 °F -3.5 °F 4.6 °F 62% 29.93 in 5.0 mi South 25.3 mph 33.4 mph N/A   Haze
4:55 PM 15.3 °F -3.4 °F 4.6 °F 63% 29.92 in 7.0 mi SSW 24.2 mph 29.9 mph N/A   Clear
5:15 PM 15.6 °F -3.6 °F 4.3 °F 61% 29.91 in 5.0 mi SSW 26.5 mph 31.1 mph N/A   Haze
5:35 PM 16.0 °F -2.5 °F 4.5 °F 60% 29.90 in 7.0 mi SSW 24.2 mph 29.9 mph N/A   Clear
5:55 PM 16.3 °F -0.8 °F 4.3 °F 59% 29.90 in 10.0 mi SSW 20.7 mph 27.6 mph N/A   Scattered Clouds
6:15 PM 16.5 °F -0.6 °F 4.6 °F 60% 29.90 in 10.0 mi SSW 20.7 mph 28.8 mph N/A   Scattered Clouds
6:35 PM 16.7 °F 0.1 °F 4.6 °F 59% 29.89 in 10.0 mi SSW 19.6 mph 24.2 mph N/A   Mostly Cloudy
6:55 PM 17.1 °F 0.6 °F 5.2 °F 60% 29.89 in 10.0 mi SSW 19.6 mph 25.3 mph N/A   Mostly Cloudy
7:15 PM 17.6 °F 1.7 °F 5.5 °F 59% 29.89 in 10.0 mi SW 18.4 mph - N/A   Scattered Clouds
7:35 PM 18.1 °F 0.8 °F 5.5 °F 58% 29.87 in 10.0 mi SW 23.0 mph - N/A   Scattered Clouds
7:55 PM 18.5 °F 1.3 °F 6.6 °F 60% 29.86 in 10.0 mi SW 23.0 mph 29.9 mph N/A   Mostly Cloudy
8:15 PM 18.9 °F 1.7 °F 7.0 °F 60% 29.84 in 10.0 mi SW 23.0 mph 29.9 mph N/A   Overcast
8:35 PM 18.9 °F 0.7 °F 7.5 °F 61% 29.82 in 10.0 mi SW 26.5 mph 32.2 mph N/A   Overcast
8:55 PM 19.0 °F 1.6 °F 7.5 °F 61% 29.82 in 10.0 mi SW 24.2 mph 29.9 mph N/A   Overcast
9:15 PM 19.2 °F 2.2 °F 7.5 °F 60% 29.81 in 7.0 mi SW 23.0 mph 33.4 mph N/A   Overcast
9:35 PM 19.4 °F 2.8 °F 8.1 °F 61% 29.81 in 10.0 mi SW 21.9 mph 28.8 mph N/A   Overcast
9:55 PM 19.9 °F 1.8 °F 9.0 °F 62% 29.79 in 4.0 mi WSW 27.6 mph 35.7 mph N/A   Haze
10:15 PM 19.2 °F 1.2 °F 12.2 °F 74% 29.79 in 1.2 mi WSW 26.5 mph 39.1 mph N/A Snow Light Snow
10:35 PM 18.7 °F 0.1 °F 14.0 °F 82% 29.76 in 1.2 mi SW 27.6 mph 36.8 mph N/A Snow Light Snow
10:55 PM 18.5 °F 0.2 °F 14.5 °F 85% 29.74 in 1.8 mi SW 26.5 mph 32.2 mph N/A Snow Light Snow
11:15 PM 18.5 °F 0.9 °F 14.7 °F 85% 29.72 in 1.8 mi SW 24.2 mph 31.1 mph N/A Snow Light Snow
11:35 PM 18.5 °F 0.2 °F 14.9 °F 86% 29.71 in 1.5 mi SW 26.5 mph 31.1 mph N/A Snow Light Snow
11:55 PM 18.7 °F 1.5 °F 15.3 °F 87% 29.70 in 1.8 mi SW 23.0 mph 31.1 mph N/A Snow Light Snow